Hourly Data Report for April 17, 2020

TORONTO CITY
ONTARIO
Current Station Operator: ECCC - MSC

43°40'00.000" N
79°24'00.000" W
112.50 m
6158355
71508
XTO

Download Data

Hourly Data (April 2020)
Hourly Data Report for April 17, 2020
TIME
LST
Temp Definition
°C
Dew Point Definition
°C
Rel Hum Definition
%
Precip. Amount Definition
mm

Wind Dir Definition
10's deg

Wind Spd Definition
km/h
Visibility Definition
km
Stn Press Definition
kPa
Hmdx Definition


Wind Chill Definition


Weather Definition


00:00 0.8 -5.8 61 0.0       100.92     LegendNANA
01:00 0.5 -5.4 65 0.0       100.91     LegendNANA
02:00 0.3 -5.5 65 0.0       100.90     LegendNANA
03:00 -0.1 -5.6 66 0.0       100.84     LegendNANA
04:00 -0.1 -5.7 66 0.0       100.88     LegendNANA
05:00 -0.6 -6.1 67 0.0       100.85     LegendNANA
06:00 -0.1 -6.1 64 0.0       100.88     LegendNANA
07:00 1.5 -6.5 55 0.0       100.88     LegendNANA
08:00 3.4 -6.5 48 0.0       100.87     LegendNANA
09:00 4.1 -8.8 38 0.0       100.85     LegendNANA
10:00 5.2 -10.5 31 0.0       100.76     LegendNANA
11:00 4.8 -8.1 39 0.2       100.69     LegendNANA
12:00 5.4 -8.6 36 0.0       100.60     LegendNANA
13:00 5.4 -10.0 32 0.2       100.48     LegendNANA
14:00 5.5 -9.9 32 0.2       100.38     LegendNANA
15:00 4.9 -9.4 35 0.0       100.27     LegendNANA
16:00 3.7 -3.3 60 0.2       100.21     LegendNANA
17:00 3.0 -3.0 64 0.0       100.18     LegendNANA
18:00 3.0 -2.9 65 0.0       100.13     LegendNANA
19:00 2.7 -2.6 68 0.0       100.07     LegendNANA
20:00 2.6 -3.2 66 0.0       100.05     LegendNANA
21:00 2.4 -3.7 64 0.0       100.05     LegendNANA
22:00 2.1 -4.4 62 0.0       99.98     LegendNANA
23:00 1.8 -3.8 67 0.0       99.93     LegendNANA

Notes on Data Quality.

Legend

  • E = Estimated
  • M = Missing
  • NA = Not Available*
  • [empty] = Indicates an unobserved value
Date modified: